STARLINK-33723, 63593

Orbit data source: Space-Track

STARLINK-33723, 63593 is a payload satellite owned by SpaceX/Seattle (US) in LEO that was launched on Mon, 14 Apr 2025 UTC via an FALCON 9 launch vehicle from the Air Force Eastern Test Range (AFETR). Payload-class satellites include a variety of spacecraft equipped with specific instruments for various scientific and technological missions. These include communications satellites like Starlink; space stations such as the ISS; scientific satellites like the Hubble; Earth observation satellites from companies like Planet Labs, Umbra, and HawkEye 360; GPS; miniature CubeSats for education and research; and military/defense satellites.

Loading next visibility...
Identifier
63593, 2025-076AA
Orbit
LEO
Last TLE update
10 hours ago
Origin
Manufacturer
SpaceX/Seattle
Mission
Operational Commercial Communications
Bus & Motor
STARLINK V2MO, Unknown motor
Mass
575 kg wet, ~530 kg dry
Launch date (UTC)
2025-04-14 (3 months ago)
Launch vehicle
FALCON 9
Launch site
Air Force Eastern Test Range (AFETR)
Object type
Payload
Rocket body
Debris
Shape & HBR
Box + 1 Pan, 29 m
Radar Cross Section
41.120 m², Large (>1 m²)

Expand to show TLE details & history

TLE from 10 hours ago
0 STARLINK-33723
1 63593U 25076AA  25182.02656263  .00027722  00000-0  10136-2 0  9997
2 63593  43.0001 302.7849 0000778  23.7129 336.3758 15.27565571 13109
Epoch: 2025-07-01T00:38Z
TLE epoch observation values (Epoch: 2025-07-01T00:38:15.011Z)
Latitude
-0.00003°
Longitude
13.89439°
Altitude
482.379 km
Speed
7.626 km/s
True Right ascension
20h 11m 08s
True Declination
0° 00' 00"
Sunlit
Object was in full shadow at epoch
Visualization orbit readout
Latitude
18.41529°
Longitude
32.44761°
Altitude
481.724 km
Speed
7.628 km/s
Apparent Right ascension
20h 17m 29s
Apparent Declination
-48° 13' 41"
Sunlit
Object is in full shadow
Visualization observer readout
Local Sidereal Time
21:48:45
Azimuth
194.973° SSW
Elevation
-0.436°
Doppler factor
1
Orbital elements
Apogee altitude
485.571 km
Perigee altitude
484.503 km
Semi-major axis
6,863.174 km
Eccentricity
0.00008
Inclination
43.0001°
RAAN
302.7849°
Arg. of periapsis
23.7129°
True anomaly
Unknown
Mean anomaly
336.3758°
Eccentric anomaly
Unknown
Mean motion
3.81729 °/min
Orbital period
94.31 mins
BSTAR
0.0010136
Loading maneuver chart data...
Loading SW <> Apogee altitude chart data...
Loading historical data...
Loading historical data...
Loading historical data...
Loading historical data...
Loading historical data...
Loading historical data...
Loading historical data...

STARLINK-33723 Visibility forecast

Observer location: undefined°, undefined°

Span
Click to sort rows by Start time (UTC) header in descending order
Start Az.
Max El. time (UTC)
Max El. Az.
Max El.
End time (UTC)
End Az.
5 mins2025-07-01 11:51:21.606Z225.196° WSW2025-07-01 11:53:21.606Z175.463° S38.099°2025-07-01 11:56:21.606Z81.187° E
5 mins2025-07-01 13:30:21.606Z277.896° WNW2025-07-01 13:32:21.606Z329.679° NNW39.54°2025-07-01 13:35:21.606Z67.894° E
6 mins2025-07-01 15:09:21.606Z293.461° NW2025-07-01 15:11:21.606Z331.823° NNW38.704°2025-07-01 15:15:21.606Z89.988° E
6 mins2025-07-01 16:48:21.606Z275.343° WNW2025-07-01 16:50:21.606Z231.461° WSW35.752°2025-07-01 16:54:21.606Z131.474° SE
|